Methuen, Massachusetts, United States (01844)
Lat: 42.73N, Lon: 71.19W
Wx Zone: MAZ006
Local Info
Past Weather Observations for Wednesday, March 4, 2015

NOTE: This archive is for the closest National Weather Service station to Methuen. Information may differ from the station used for current weather conditions.

Click here for Long-term Archive

Time Weather Temperature Dewpoint Humidity Pressure Winds Precip Visibility
23:54
Overcast
37°F / 3°C 27°F / -3°C 65% 29.86 in
(1011 mb)
SW 6.9 mph
(SW 11 kph)
- 10SM
22:54
Overcast
37°F / 3°C 27°F / -3°C 65% 29.86 in
(1011 mb)
SW 9.2 mph
(SW 15 kph)
- 10SM
21:54
Clear
37°F / 3°C 27°F / -3°C 65% 29.83 in
(1010 mb)
SW 8.1 mph
(SW 13 kph)
- 10SM
20:54
Clear
37°F / 3°C 27°F / -3°C 65% 29.83 in
(1010 mb)
SSW 10.4 mph
(SSW 17 kph)
- 10SM
19:54
Clear
37°F / 3°C 27°F / -3°C 65% 29.8 in
(1009 mb)
SSW 9.2 mph
(SSW 15 kph)
- 10SM
18:54
Clear
37°F / 3°C 27°F / -3°C 65% 29.83 in
(1010 mb)
SSW 12.7 mph
(SSW 20 kph)
- 10SM
17:54
Clear
39°F / 4°C 27°F / -3°C 61% 29.8 in
(1009 mb)
SSW 11.5 mph
(SSW 19 kph)
- 10SM
16:54
Clear
39°F / 4°C 27°F / -3°C 61% 29.77 in
(1008 mb)
SW 10.4 mph
(SW 17 kph)
- 10SM
15:54
Clear
41°F / 5°C 27°F / -3°C 57% 29.77 in
(1008 mb)
SSW 12.7 mph
(SSW 20 kph)
- 10SM
14:54
Clear
41°F / 5°C 28°F / -2°C 61% 29.77 in
(1008 mb)
SSW 10.4 mph
(SSW 17 kph)
- 10SM
13:54
Clear
43°F / 6°C 27°F / -3°C 53% 29.74 in
(1007 mb)
SSW 13.8 mph
(SSW 22 kph)
- 10SM
12:54
Clear
43°F / 6°C 28°F / -2°C 57% 29.74 in
(1007 mb)
SSW 12.7 mph
(SSW 20 kph)
- 10SM
11:54
Clear
41°F / 5°C 30°F / -1°C 66% 29.77 in
(1008 mb)
SSW 15 mph
(SSW 24 kph)
- 10SM
10:54
Clear
39°F / 4°C 30°F / -1°C 70% 29.74 in
(1007 mb)
SSW 12.7 mph
(SSW 20 kph)
- 10SM
09:54
Mostly Cloudy
39°F / 4°C 32°F / 0°C 75% 29.74 in
(1007 mb)
SSW 9.2 mph
(SSW 15 kph)
- 10SM
08:54
Mostly Cloudy
37°F / 3°C 34°F / 1°C 87% 29.71 in
(1006 mb)
SSW 9.2 mph
(SSW 15 kph)
- 10SM
07:54
Partly Cloudy
37°F / 3°C 34°F / 1°C 87% 29.71 in
(1006 mb)
SW 9.2 mph
(SW 15 kph)
- 10SM
06:54
Overcast
36°F / 2°C 34°F / 1°C 93% 29.71 in
(1006 mb)
SW 8.1 mph
(SW 13 kph)
- 10SM
05:54
Clear
36°F / 2°C 34°F / 1°C 93% 29.68 in
(1005 mb)
SW 10.4 mph
(SW 17 kph)
- 10SM
04:54
Mostly Cloudy
36°F / 2°C 34°F / 1°C 93% 29.65 in
(1004 mb)
SW 8.1 mph
(SW 13 kph)
- 10SM
03:54
Partly Cloudy
34°F / 1°C 32°F / 0°C 93% 29.65 in
(1004 mb)
SW 6.9 mph
(SW 11 kph)
- 10SM
03:49
Mostly Cloudy
34°F / 1°C 32°F / 0°C 93% 29.65 in
(1004 mb)
SW 8.1 mph
(SW 13 kph)
- 10SM
03:18
Overcast
34°F / 1°C 32°F / 0°C 93% 29.65 in
(1004 mb)
SW 8.1 mph
(SW 13 kph)
- 10SM
03:01
Overcast
34°F / 1°C 32°F / 0°C 93% 29.65 in
(1004 mb)
SW 8.1 mph
(SW 13 kph)
- 10SM
02:54
Overcast
34°F / 1°C 30°F / -1°C 87% 29.65 in
(1004 mb)
SSE 8.1 mph
(SSE 13 kph)
- 10SM
01:54
Overcast
32°F / 0°C 30°F / -1°C 93% 29.71 in
(1006 mb)
S 10.4 mph
(S 17 kph)
0.00 in
(0.00 mm)
10SM
01:45
Overcast
30°F / -1°C 30°F / -1°C 100% 29.71 in
(1006 mb)
S 5.8 mph
(S 9 kph)
0.00 in
(0.00 mm)
10SM
01:24
Overcast
30°F / -1°C 28°F / -2°C 93% 29.74 in
(1007 mb)
SW 5.8 mph
(SW 9 kph)
0.00 in
(0.00 mm)
10SM
00:54
Overcast
Light Freezing Rain
30°F / -1°C 28°F / -2°C 93% 29.74 in
(1007 mb)
S 6.9 mph
(S 11 kph)
0.02 in
(0.51 mm)
6SM
00:01
Overcast
Light Freezing Rain
28°F / -2°C 27°F / -3°C 93% 29.77 in
(1008 mb)
S 11.5 mph
(S 19 kph)
0.01 in
(0.25 mm)
5SM
Time Weather Temperature Dewpoint Humidity Pressure Winds Precip Visibility


Weather for websites

WeatherForYou.com, LLC is not responsible for any damages or problems caused by this service. Current weather conditions are obtained from the closest station including government and personal stations which may have varying degrees of accuracy. Weather forecasts are derived from the NOAA NDFD. Like all things, this site belongs to Jesus Christ... He just trusts me to maintain it. If you have any questions or comments email webmaster@weatherforyou.com

Copyright © 2015, WeatherForYou.com LLC. All rights reserved.